FW6620 Weather Reports


Display with metric or nautical units.
time (UTC)temp
F
wind
direction
speed
MPH
gust
MPH
rain 1hr
in
rain 24hr
in
rain mn
in
humidity
%
barometer
mb
20220118072553 40 0 0.0 0.0 0.00 0.00 0.00 65 1017.9
20220118072045 41 0 0.0 0.0 0.00 0.00 0.00 65 1018.0
20220118071645 41 0 0.0 0.0 0.00 0.00 0.00 65 1017.9
20220118071054 41 0 0.0 0.0 0.00 0.00 0.00 66 1018.0
20220118070544 41 0 0.0 0.0 0.00 0.00 0.00 64 1018.0
20220118070141 41 0 0.0 0.0 0.00 0.00 0.00 63 1018.0
20220118065545 41 0 0.0 0.0 0.00 0.00 0.00 62 1018.1
20220118065044 42 0 0.0 0.0 0.00 0.00 0.00 62 1018.1
20220118064616 42 0 0.0 0.0 0.00 0.00 0.00 62 1018.1
20220118064048 42 0 0.0 0.0 0.00 0.00 0.00 62 1018.2
20220118063545 42 0 0.0 0.0 0.00 0.00 0.00 61 1018.2
20220118063145 42 0 0.0 0.0 0.00 0.00 0.00 61 1018.2
20220118062552 43 0 0.0 0.0 0.00 0.00 0.00 59 1018.0
20220118062050 43 0 0.0 0.0 0.00 0.00 0.00 59 1018.2
20220118061705 43 0 0.0 0.0 0.00 0.00 0.00 59 1018.1
20220118061045 44 0 0.0 0.0 0.00 0.00 0.00 58 1018.2
20220118060545 44 0 0.0 0.0 0.00 0.00 0.00 58 1018.3
20220118060125 44 0 0.0 0.0 0.00 0.00 0.00 58 1018.2
20220118055545 44 0 0.0 0.0 0.00 0.00 0.00 57 1018.3
20220118055046 44 0 0.0 0.0 0.00 0.00 0.00 57 1018.4
20220118054556 44 0 0.0 0.0 0.00 0.00 0.00 58 1018.4
20220118054044 44 0 0.0 0.0 0.00 0.00 0.00 60 1018.3
20220118053556 44 0 0.0 0.0 0.00 0.00 0.00 61 1018.4
20220118053224 44 0 0.0 0.0 0.00 0.00 0.00 59 1018.3
20220118052545 43 0 0.0 0.0 0.00 0.00 0.00 57 1018.4
20220118052046 43 0 0.0 0.0 0.00 0.00 0.00 61 1018.4
20220118051643 43 0 0.0 0.0 0.00 0.00 0.00 59 1018.3
20220118051044 43 0 0.0 0.0 0.00 0.00 0.00 60 1018.3
20220118050553 43 0 0.0 0.0 0.00 0.00 0.00 60 1018.3
20220118050207 43 0 0.0 0.0 0.00 0.00 0.00 62 1018.4
20220118045545 42 0 0.0 0.0 0.00 0.00 0.00 62 1018.3
20220118045044 42 0 0.0 0.0 0.00 0.00 0.00 62 1018.4
20220118044643 42 0 0.0 0.0 0.00 0.00 0.00 63 1018.3
20220118044043 42 0 0.0 0.0 0.00 0.00 0.00 65 1018.3
20220118043551 42 0 0.0 0.0 0.00 0.00 0.00 65 1018.2
20220118043202 42 0 0.0 0.0 0.00 0.00 0.00 63 1018.2
20220118042544 42 0 0.0 0.0 0.00 0.00 0.00 62 1018.3
20220118042055 43 0 0.0 0.0 0.00 0.00 0.00 62 1018.2
20220118041614 43 0 0.0 0.0 0.00 0.00 0.00 62 1018.3
20220118041043 43 0 0.0 0.0 0.00 0.00 0.00 62 1018.3
20220118040549 43 0 0.0 0.0 0.00 0.00 0.00 63 1018.4
20220118040119 43 0 0.0 0.0 0.00 0.00 0.00 63 1018.4
20220118035609 43 0 0.0 0.0 0.00 0.00 0.00 62 1018.5
20220118035046 44 0 0.0 0.0 0.00 0.00 0.00 60 1018.5
20220118034735 44 0 0.0 0.0 0.00 0.00 0.00 59 1018.4
20220118034049 44 0 0.0 0.0 0.00 0.00 0.00 61 1018.4
20220118033544 44 0 0.0 0.0 0.00 0.00 0.00 61 1018.5
20220118033155 44 0 0.0 0.0 0.00 0.00 0.00 60 1018.4
20220118032554 44 0 0.0 0.0 0.00 0.00 0.00 57 1018.4
20220118032046 45 0 0.0 0.0 0.00 0.00 0.00 56 1018.4
20220118031641 45 0 0.0 0.0 0.00 0.00 0.00 58 1018.4
20220118031047 45 0 0.0 0.0 0.00 0.00 0.00 58 1018.5
20220118030550 45 0 0.0 0.0 0.00 0.00 0.00 59 1018.4
20220118030139 46 0 0.0 0.0 0.00 0.00 0.00 57 1018.3
20220118025559 46 0 0.0 0.0 0.00 0.00 0.00 57 1018.4
20220118025046 46 0 0.0 0.0 0.00 0.00 0.00 56 1018.5
20220118024659 46 0 0.0 0.0 0.00 0.00 0.00 55 1018.5
20220118024047 47 0 0.0 0.0 0.00 0.00 0.00 54 1018.4
20220118023543 47 0 0.0 0.0 0.00 0.00 0.00 55 1018.4
20220118023136 47 0 0.0 0.0 0.00 0.00 0.00 55 1018.4
20220118022555 48 0 0.0 0.0 0.00 0.00 0.00 55 1018.5
20220118022044 48 0 0.0 0.0 0.00 0.00 0.00 55 1018.4
20220118021557 48 0 0.0 0.0 0.00 0.00 0.00 54 1018.4
20220118021044 48 0 0.0 0.0 0.00 0.00 0.00 53 1018.4
20220118020546 49 0 0.0 0.0 0.00 0.00 0.00 53 1018.3
20220118020133 49 0 0.0 0.0 0.00 0.00 0.00 51 1018.3
20220118015620 49 0 0.0 0.0 0.00 0.00 0.00 50 1018.2
20220118015051 49 0 0.0 0.0 0.00 0.00 0.00 49 1018.2
20220118014711 49 0 0.0 0.0 0.00 0.00 0.00 47 1018.2
20220118014045 50 0 0.0 0.0 0.00 0.00 0.00 47 1018.1
20220118013545 50 0 0.0 0.0 0.00 0.00 0.00 46 1018.1
20220118013137 50 0 0.0 0.0 0.00 0.00 0.00 45 1018.1
20220118012546 50 0 0.0 0.0 0.00 0.00 0.00 45 1018.1
20220118012045 51 0 0.0 0.0 0.00 0.00 0.00 44 1018.1
20220118011653 51 0 0.0 0.0 0.00 0.00 0.00 44 1018.1
20220118011055 51 0 0.0 0.0 0.00 0.00 0.00 44 1018.1
20220118010546 51 0 0.0 0.0 0.00 0.00 0.00 44 1018.1
20220118010101 52 0 0.0 0.0 0.00 0.00 0.00 43 1018.1
20220118005545 52 0 0.0 0.0 0.00 0.00 0.00 42 1018.1
20220118005047 53 0 0.0 0.0 0.00 0.00 0.00 42 1018.0
20220118004613 53 0 0.0 0.0 0.00 0.00 0.00 41 1018.0
20220118004054 54 0 0.0 0.0 0.00 0.00 0.00 39 1018.0
20220118003551 54 0 0.0 2.0 0.00 0.00 0.00 41 1018.0
20220118003135 54 0 0.0 2.0 0.00 0.00 0.00 40 1017.9
20220118002543 55 114 0.0 2.0 0.00 0.00 0.00 40 1018.0
20220118002044 55 0 0.0 1.0 0.00 0.00 0.00 38 1017.8
20220118001619 56 0 0.0 0.0 0.00 0.00 0.00 38 1017.8
20220118001046 57 0 0.0 0.0 0.00 0.00 0.00 37 1017.8
20220118000546 58 0 0.0 0.0 0.00 0.00 0.00 36 1017.7
20220118000120 60 0 0.0 0.0 0.00 0.00 0.00 35 1017.7
20220117235544 61 0 0.0 0.0 0.00 0.00 0.00 34 1017.6
20220117235044 62 0 0.0 0.0 0.00 0.00 0.00 31 1017.7
20220117234718 63 0 0.0 0.0 0.00 0.00 0.00 29 1017.6
20220117234045 64 0 0.0 0.0 0.00 0.00 0.00 28 1017.5
20220117233546 64 0 0.0 4.0 0.00 0.00 0.00 29 1017.4
20220117233136 65 0 0.0 5.0 0.00 0.00 0.00 27 1017.6
20220117232551 65 242 0.0 6.0 0.00 0.00 0.00 27 1017.8
20220117232043 66 139 1.0 6.0 0.00 0.00 0.00 26 1017.9
20220117231651 66 0 0.0 4.0 0.00 0.00 0.00 25 1018.0
20220117231049 67 0 1.0 4.0 0.00 0.00 0.00 25 1017.9
20220117230606 67 155 0.0 3.0 0.00 0.00 0.00 25 1017.9
20220117230110 67 147 1.0 7.0 0.00 0.00 0.00 24 1017.9
20220117225543 67 0 1.0 7.0 0.00 0.00 0.00 25 1017.9
20220117225044 67 106 1.0 7.0 0.00 0.00 0.00 25 1017.9
20220117224635 68 146 2.0 9.0 0.00 0.00 0.00 23 1018.0
20220117224045 68 121 3.0 9.0 0.00 0.00 0.00 23 1017.9
20220117223556 68 199 3.0 7.0 0.00 0.00 0.00 24 1017.9
20220117223221 68 119 1.0 5.0 0.00 0.00 0.00 25 1017.9
20220117222546 68 128 1.0 4.0 0.00 0.00 0.00 26 1018.0
20220117222044 68 0 0.0 3.0 0.00 0.00 0.00 26 1018.0
20220117221725 68 0 0.0 3.0 0.00 0.00 0.00 27 1018.0
20220117221044 68 131 0.0 3.0 0.00 0.00 0.00 26 1018.2
20220117220555 68 131 1.0 3.0 0.00 0.00 0.00 25 1018.2
20220117220128 68 0 1.0 6.0 0.00 0.00 0.00 26 1018.2
20220117215545 68 125 2.0 6.0 0.00 0.00 0.00 25 1018.3
20220117215046 68 110 1.0 3.0 0.00 0.00 0.00 26 1018.3
20220117214700 68 0 0.0 5.0 0.00 0.00 0.00 26 1018.3
20220117214045 67 113 0.0 5.0 0.00 0.00 0.00 26 1018.3
20220117213549 67 143 1.0 4.0 0.00 0.00 0.00 26 1018.4
20220117213209 67 0 1.0 6.0 0.00 0.00 0.00 26 1018.3
20220117212549 67 143 1.0 6.0 0.00 0.00 0.00 26 1018.4
20220117212045 67 0 1.0 3.0 0.00 0.00 0.00 26 1018.5
20220117211645 67 0 1.0 4.0 0.00 0.00 0.00 28 1018.6
20220117211120 67 143 0.0 4.0 0.00 0.00 0.00 26 1018.5
20220117210551 67 93 1.0 4.0 0.00 0.00 0.00 25 1018.6
20220117210215 67 144 1.0 4.0 0.00 0.00 0.00 25 1018.6
20220117205608 67 0 0.0 4.0 0.00 0.00 0.00 26 1018.6
20220117205045 67 122 0.0 4.0 0.00 0.00 0.00 26 1018.6
20220117204622 66 117 0.0 4.0 0.00 0.00 0.00 26 1018.6
20220117204044 66 120 1.0 3.0 0.00 0.00 0.00 25 1018.5
20220117203607 66 123 0.0 3.0 0.00 0.00 0.00 26 1018.7
20220117203546 66 0 1.0 3.0 0.00 0.00 0.00 25 1018.6
20220117202622 66 0 0.0 4.0 0.00 0.00 0.00 25 1018.7
20220117202045 65 121 0.0 4.0 0.00 0.00 0.00 27 1018.7
20220117201609 65 121 1.0 4.0 0.00 0.00 0.00 26 1018.8
20220117201045 65 141 1.0 3.0 0.00 0.00 0.00 26 1019.0
20220117200545 65 141 0.0 5.0 0.00 0.00 0.00 26 1019.2
20220117200132 64 141 1.0 5.0 0.00 0.00 0.00 25 1019.3
20220117195555 64 145 0.0 3.0 0.00 0.00 0.00 27 1019.3
20220117195045 64 0 1.0 3.0 0.00 0.00 0.00 26 1019.4
20220117194737 64 141 0.0 4.0 0.00 0.00 0.00 28 1019.2
20220117194046 64 141 1.0 4.0 0.00 0.00 0.00 27 1019.3
20220117193609 65 132 1.0 4.0 0.00 0.00 0.00 28 1019.4
20220117193123 65 150 1.0 4.0 0.00 0.00 0.00 28 1019.6
20220117192544 65 0 0.0 2.0 0.00 0.00 0.00 29 1020.3
20220117192106 64 0 0.0 4.0 0.00 0.00 0.00 30 1020.5
20220117191632 64 150 1.0 4.0 0.00 0.00 0.00 28 1020.7
20220117191104 64 0 0.0 4.0 0.00 0.00 0.00 28 1020.5
20220117190544 65 0 0.0 4.0 0.00 0.00 0.00 29 1020.3
20220117190204 65 0 0.0 3.0 0.00 0.00 0.00 27 1020.2
20220117185600 64 281 0.0 2.0 0.00 0.00 0.00 28 1020.3
20220117185043 64 0 0.0 2.0 0.00 0.00 0.00 28 1020.4
20220117184620 64 0 0.0 2.0 0.00 0.00 0.00 30 1020.6
20220117184052 63 0 0.0 2.0 0.00 0.00 0.00 29 1020.7
20220117183546 63 0 0.0 2.0 0.00 0.00 0.00 30 1020.9
20220117183155 62 0 0.0 3.0 0.00 0.00 0.00 31 1021.0
20220117182544 62 0 1.0 6.0 0.00 0.00 0.00 28 1021.1
20220117182044 62 0 1.0 6.0 0.00 0.00 0.00 31 1021.4
20220117181621 61 0 0.0 3.0 0.00 0.00 0.00 32 1021.4
20220117181049 61 81 0.0 3.0 0.00 0.00 0.00 31 1021.5
20220117180609 61 102 0.0 3.0 0.00 0.00 0.00 32 1021.5
20220117180150 60 0 0.0 2.0 0.00 0.00 0.00 35 1021.8
20220117175544 60 0 0.0 3.0 0.00 0.00 0.00 33 1022.0
20220117175105 59 0 0.0 3.0 0.00 0.00 0.00 36 1022.0
20220117174718 59 0 0.0 3.0 0.00 0.00 0.00 36 1022.1
20220117174044 58 0 0.0 2.0 0.00 0.00 0.00 35 1022.1
20220117173546 57 73 0.0 2.0 0.00 0.00 0.00 37 1022.3
20220117173128 57 0 0.0 3.0 0.00 0.00 0.00 39 1022.2
20220117172545 56 94 1.0 4.0 0.00 0.00 0.00 36 1022.5
20220117172044 56 93 1.0 4.0 0.00 0.00 0.00 38 1022.6
20220117171713 56 89 1.0 3.0 0.00 0.00 0.00 40 1022.7
20220117171046 55 110 0.0 2.0 0.00 0.00 0.00 42 1022.6
20220117170543 54 110 0.0 2.0 0.00 0.00 0.00 45 1022.7
20220117170211 54 0 0.0 2.0 0.00 0.00 0.00 43 1022.7
20220117165621 54 98 0.0 1.0 0.00 0.00 0.00 43 1022.6
20220117165052 53 0 0.0 2.0 0.00 0.00 0.00 45 1022.7
20220117164614 53 0 0.0 3.0 0.00 0.00 0.00 47 1022.8
20220117164109 52 0 0.0 3.0 0.00 0.00 0.00 44 1022.9
20220117163545 52 151 0.0 3.0 0.00 0.00 0.00 45 1022.9
20220117163257 52 147 0.0 3.0 0.00 0.00 0.00 45 1022.9
20220117162545 51 0 0.0 2.0 0.00 0.00 0.00 46 1022.9
20220117162105 51 0 0.0 3.0 0.00 0.00 0.00 47 1022.8
20220117161854 50 0 1.0 3.0 0.00 0.00 0.00 46 1022.7
20220117161054 50 58 0.0 2.0 0.00 0.00 0.00 50 1022.8
20220117160549 50 0 0.0 2.0 0.00 0.00 0.00 48 1022.7
20220117160152 50 58 0.0 2.0 0.00 0.00 0.00 48 1022.7
20220117155545 50 0 0.0 0.0 0.00 0.00 0.00 50 1022.6
20220117155043 49 0 0.0 0.0 0.00 0.00 0.00 51 1022.5
20220117154617 49 0 0.0 0.0 0.00 0.00 0.00 51 1022.4
20220117154043 49 0 0.0 1.0 0.00 0.00 0.00 51 1022.4
20220117153542 49 0 0.0 1.0 0.00 0.00 0.00 52 1022.4
20220117153119 48 0 0.0 1.0 0.00 0.00 0.00 53 1022.4
20220117152542 47 0 0.0 1.0 0.00 0.00 0.00 55 1022.3
20220117152111 46 0 0.0 2.0 0.00 0.00 0.00 57 1022.2
20220117151747 45 0 0.0 2.0 0.00 0.00 0.00 58 1022.2
20220117151045 45 0 0.0 1.0 0.00 0.00 0.00 63 1022.1
20220117150603 43 0 0.0 0.0 0.00 0.00 0.00 67 1022.1
20220117150158 42 0 0.0 0.0 0.00 0.00 0.00 70 1022.0
20220117145545 41 0 0.0 0.0 0.00 0.00 0.00 72 1022.0
20220117145042 41 0 0.0 0.0 0.00 0.00 0.00 74 1021.9
20220117144612 40 0 0.0 0.0 0.00 0.00 0.00 75 1022.0
20220117144045 39 0 0.0 0.0 0.00 0.00 0.00 78 1021.8
20220117143545 38 0 0.0 0.0 0.00 0.00 0.00 80 1021.8
20220117143213 37 0 0.0 0.0 0.00 0.00 0.00 82 1021.9
20220117142542 36 0 0.0 0.0 0.00 0.00 0.00 84 1021.8
20220117142051 34 0 0.0 0.0 0.00 0.00 0.00 85 1021.8
20220117141656 33 0 0.0 0.0 0.00 0.00 0.00 86 1021.6
20220117141055 32 0 0.0 0.0 0.00 0.00 0.00 87 1021.7
20220117140544 32 0 0.0 0.0 0.00 0.00 0.00 88 1021.6
20220117140103 31 0 0.0 0.0 0.00 0.00 0.00 88 1021.6
20220117135545 31 0 0.0 0.0 0.00 0.00 0.00 88 1021.6
20220117135047 31 0 0.0 0.0 0.00 0.00 0.00 88 1021.4
20220117134655 31 0 0.0 0.0 0.00 0.00 0.00 88 1021.4
20220117134106 30 0 0.0 0.0 0.00 0.00 0.00 87 1021.5
20220117133547 30 0 0.0 0.0 0.00 0.00 0.00 87 1021.4
20220117133135 30 0 0.0 0.0 0.00 0.00 0.00 87 1021.4
20220117132552 30 0 0.0 0.0 0.00 0.00 0.00 86 1021.3
20220117132044 30 0 0.0 0.0 0.00 0.00 0.00 86 1021.2
20220117131619 30 0 0.0 0.0 0.00 0.00 0.00 86 1021.2
20220117131047 31 0 0.0 0.0 0.00 0.00 0.00 86 1021.1
20220117130545 31 0 0.0 0.0 0.00 0.00 0.00 86 1020.9
20220117130222 31 0 0.0 0.0 0.00 0.00 0.00 86 1020.9
20220117125555 31 0 0.0 0.0 0.00 0.00 0.00 86 1020.8
20220117125047 31 0 0.0 0.0 0.00 0.00 0.00 86 1020.8
20220117124641 31 0 0.0 0.0 0.00 0.00 0.00 86 1020.6
20220117124046 31 0 0.0 0.0 0.00 0.00 0.00 85 1020.6
20220117123607 31 0 0.0 0.0 0.00 0.00 0.00 85 1020.5
20220117123219 31 0 0.0 0.0 0.00 0.00 0.00 85 1020.4
20220117122625 31 0 0.0 0.0 0.00 0.00 0.00 86 1020.5
20220117122050 31 0 0.0 0.0 0.00 0.00 0.00 85 1020.5
20220117121617 31 0 0.0 0.0 0.00 0.00 0.00 85 1020.4
20220117121045 31 0 0.0 0.0 0.00 0.00 0.00 84 1020.4
20220117120543 31 0 0.0 0.0 0.00 0.00 0.00 85 1020.3
20220117120205 31 0 0.0 0.0 0.00 0.00 0.00 86 1020.1
20220117115543 31 0 0.0 0.0 0.00 0.00 0.00 85 1020.1
20220117115050 31 0 0.0 0.0 0.00 0.00 0.00 85 1020.3
20220117114613 31 0 0.0 0.0 0.00 0.00 0.00 85 1020.1
20220117114046 31 0 0.0 0.0 0.00 0.00 0.00 85 1020.2
20220117113548 31 0 0.0 0.0 0.00 0.00 0.00 85 1020.1
20220117113112 31 0 0.0 0.0 0.00 0.00 0.00 85 1020.1
20220117112554 31 0 0.0 0.0 0.00 0.00 0.00 84 1020.1
20220117112046 31 0 0.0 0.0 0.00 0.00 0.00 84 1020.1
20220117111555 31 0 0.0 0.0 0.00 0.00 0.00 84 1020.0
20220117111044 31 0 0.0 0.0 0.00 0.00 0.00 84 1020.1
20220117110545 31 0 0.0 0.0 0.00 0.00 0.00 83 1020.2
20220117110133 31 0 0.0 0.0 0.00 0.00 0.00 83 1020.1
20220117105546 31 0 0.0 0.0 0.00 0.00 0.00 83 1020.1
20220117105044 31 0 0.0 0.0 0.00 0.00 0.00 83 1020.0
20220117104637 32 0 0.0 0.0 0.00 0.00 0.00 83 1020.1
20220117104048 32 0 0.0 0.0 0.00 0.00 0.00 83 1020.0
20220117103606 32 0 0.0 0.0 0.00 0.00 0.00 83 1020.0
20220117103124 32 0 0.0 0.0 0.00 0.00 0.00 82 1019.9
20220117102606 32 0 0.0 0.0 0.00 0.00 0.00 82 1020.0
20220117102104 32 0 0.0 0.0 0.00 0.00 0.00 82 1020.0
20220117101650 32 0 0.0 0.0 0.00 0.00 0.00 81 1020.0
20220117101059 32 0 0.0 0.0 0.00 0.00 0.00 82 1020.1
20220117100544 32 0 0.0 0.0 0.00 0.00 0.00 81 1020.1
20220117100156 32 0 0.0 0.0 0.00 0.00 0.00 80 1020.0
20220117095542 32 0 0.0 0.0 0.00 0.00 0.00 80 1020.1
20220117095048 32 0 0.0 0.0 0.00 0.00 0.00 81 1020.1
20220117094628 32 0 0.0 0.0 0.00 0.00 0.00 81 1020.1
20220117094042 32 0 0.0 0.0 0.00 0.00 0.00 80 1020.0
20220117093543 32 0 0.0 0.0 0.00 0.00 0.00 79 1020.0
20220117093108 32 0 0.0 0.0 0.00 0.00 0.00 78 1020.0
20220117092639 32 0 0.0 0.0 0.00 0.00 0.00 78 1019.8
20220117092046 32 0 0.0 0.0 0.00 0.00 0.00 80 1019.7
20220117091748 32 0 0.0 0.0 0.00 0.00 0.00 80 1019.9
20220117091101 32 0 0.0 0.0 0.00 0.00 0.00 79 1019.9
20220117090546 32 0 0.0 0.0 0.00 0.00 0.00 80 1019.9
20220117090110 32 0 0.0 0.0 0.00 0.00 0.00 78 1019.8
20220117085555 32 0 0.0 0.0 0.00 0.00 0.00 77 1019.7
20220117085044 32 0 0.0 0.0 0.00 0.00 0.00 78 1019.7
20220117084732 32 0 0.0 0.0 0.00 0.00 0.00 77 1019.6
20220117084052 32 0 0.0 0.0 0.00 0.00 0.00 77 1019.6
20220117083543 33 0 0.0 0.0 0.00 0.00 0.00 79 1019.5
20220117083158 33 0 0.0 0.0 0.00 0.00 0.00 79 1019.3
20220117082545 33 0 0.0 0.0 0.00 0.00 0.00 79 1019.4
20220117082044 33 0 0.0 0.0 0.00 0.00 0.00 79 1019.4
20220117081604 33 0 0.0 0.0 0.00 0.00 0.00 78 1019.3
20220117081045 33 0 0.0 0.0 0.00 0.00 0.00 77 1019.3
20220117080547 33 0 0.0 0.0 0.00 0.00 0.00 77 1019.3
20220117080147 33 0 0.0 0.0 0.00 0.00 0.00 77 1019.1
20220117075550 33 0 0.0 0.0 0.00 0.00 0.00 77 1019.1
20220117075045 33 0 0.0 0.0 0.00 0.00 0.00 77 1019.1
20220117074714 33 0 0.0 0.0 0.00 0.00 0.00 77 1019.0
20220117074045 33 0 0.0 0.0 0.00 0.00 0.00 77 1019.1
20220117073545 33 0 0.0 0.0 0.00 0.00 0.00 76 1018.9
20220117073156 34 0 0.0 0.0 0.00 0.00 0.00 75 1018.9